Regional Weather Roundup
Issued by NWS

Home | Current Version | Previous Version | Graphics & Text | Print | Product List | Glossary On
Versions: 1 2 3 4 5 6 7 8 9 10 11 12 13 14 15 16 17 18 19 20 21 22 23 24 25 26 27 28 29 30 31 32 33 34 35 36 37 38 39 40 41 42 43 44 45 46 47 48 49 50
000
ASUS45 KSLC 262010
RWRUT

UTAH REGIONAL WEATHER ROUNDUP
NATIONAL WEATHER SERVICE SALT LAKE CITY UT
200 PM MDT TUE MAY 26 2015

UTZ001>011-023>025-262100-

NORTHERN UTAH

CITY           SKY/WX    TMP DP  RH WIND       PRES   REMARKS
BRIGHAM CITY   CLOUDY    57  51  78 SE6       30.04F
HILL AFB       NOT AVBL
LOGAN          CLOUDY    60  47  61 S13       30.02F
OGDEN          LGT RAIN  56  53  90 E8        30.04F
PROVO AIRPORT  PTSUNNY   59  48  67 VRB6      30.05F
SALT LAKE CITY PTSUNNY   61  50  67 S12       30.03F
VERNAL         PTSUNNY   65  44  46 S8        30.04F
WENDOVER       CLOUDY    63  46  55 E6        30.02F
HEBER CITY     CLOUDY    54  46  76 CALM      30.08F
WEST JORDAN    CLOUDY    57  54  88 S13       30.05F

$$

UTZ012>022-026-027-262100-

SOUTHERN/CENTRAL UTAH

CITY           SKY/WX    TMP DP  RH WIND       PRES   REMARKS
BLANDING       CLOUDY    60  45  57 SW9G32    30.19R
BRYCE CANYON   CLOUDY    49  43  80 N5        30.20S
CEDAR CITY     PTSUNNY   63  48  58 N10       30.07S
DELTA          MOSUNNY   70  39  32 SW9G17    30.02F
HANKSVILLE     PTSUNNY   72  39  30 CALM      30.01F
MILFORD        MOSUNNY   64  47  53 S15       30.04F
MOAB/CYNLANDS  SUNNY     69  52  54 W7        29.99F
PRICE          LGT RAIN  60  41  49 S8        30.07F
ST GEORGE      CLOUDY    81  43  26 NW12      29.96F
KANAB          MOSUNNY   73  39  29 S13G18    30.08F

$$

REGIONAL REPORTS     COLORADO/ARIZONA

CITY           SKY/WX    TMP DP  RH WIND       PRES   REMARKS
CRAIG, CO      RAIN      50  44  80 S23G32    30.11R
GRAND JUNCTION PTSUNNY   67  45  45 SE12G20   30.03S
RIFLE          CLOUDY    65  44  46 N9G17     30.07S
MONTROSE       LGT RAIN  58  46  64 SE20G30   30.11R
CORTEZ         PTSUNNY   68  39  34 CALM      30.11F
PAGE, AZ       MOSUNNY   77  41  27 VRB7      30.02F
GRAND CANYON   MOSUNNY   68  32  26 SW13G18   30.17F
KINGMAN        SUNNY     84  29  13 SW23G32   30.00F
FLAGSTAFF      MOSUNNY   65  32  29 SW12G23   30.20F

$$

REGIONAL REPORTS    NEVADA/IDAHO/WYOMING

CITY           SKY/WX    TMP DP  RH WIND       PRES   REMARKS
LAS VEGAS, NV  MOSUNNY   88  36  15 E6        29.87F
ELY            PTSUNNY   65  38  36 S13G23    30.07F
ELKO           MOSUNNY   68  40  35 SW10G16   30.01F
POCATELLO, ID  MOSUNNY   64  47  53 VRB6      30.00F
BURLEY         MOSUNNY   64  47  53 SW9       29.97F
EVANSTON, WY   LGT RAIN  48  44  86 NW3       30.12S FOG
ROCK SPRINGS   MOSUNNY   60  39  45 SW7       30.06F
KEMMERER       PTSUNNY   55  43  62 SW14      30.10F

$$


USA.gov is the U.S. government's official web portal to all federal, state and local government web resources and services.